{"data":{"norad_id":60445,"epoch":"2026-09-21T14:45:11.584224Z","epoch_age_seconds":92094,"freshness":"FRESH","line1":"1 60445U 24144W   26264.61471741 -.00003118  00000+0 -81284-4 0  9996","line2":"2 60445  53.1613  22.2922 0000788  82.1834 277.9258 15.34370976119419","mean_motion":15.34370976,"eccentricity":7.88e-5,"inclination_deg":53.1613,"raan_deg":22.2922,"arg_perigee_deg":82.1834,"mean_anomaly_deg":277.9258,"bstar":-8.1284e-5,"rev_number":11941,"period_min":93.849533295656,"perigee_km":462.2504420027,"apogee_km":463.32857202021,"semimajor_km":6840.9265070115,"source":"CELESTRAK","updated_at":"2026-09-22T09:00:49.237680Z"}}